Time,TemperatureF,DewpointF,PressureIn,WindDirection,WindDirectionDegrees,WindSpeedMPH,WindSpeedGustMPH,Humidity,HourlyPrecipIn,Conditions,Clouds,dailyrainin,SoftwareType,DateUTC
2013-07-19 00:00:00,77.2,74.7,30.00,SW,231,0.0,0.0,92,0.00,,,0.00,LWC V2.00 B2112,2013-07-19 04:00:00,
2013-07-19 00:05:00,77.0,74.5,30.00,SW,231,0.0,0.0,92,0.00,,,0.00,LWC V2.00 B2112,2013-07-19 04:05:00,
2013-07-19 00:10:00,77.0,74.5,30.00,SW,231,0.0,0.0,92,0.00,,,0.00,LWC V2.00 B2112,2013-07-19 04:10:00,
2013-07-19 00:15:00,77.0,74.5,30.00,SW,231,0.0,0.0,92,0.00,,,0.00,LWC V2.00 B2112,2013-07-19 04:15:00,
2013-07-19 00:20:00,76.8,74.3,30.00,SW,231,0.0,0.0,92,0.00,,,0.00,LWC V2.00 B2112,2013-07-19 04:20:00,
2013-07-19 00:25:00,76.8,74.6,30.00,SW,231,0.0,0.0,93,0.00,,,0.00,LWC V2.00 B2112,2013-07-19 04:25:00,
2013-07-19 00:30:00,76.8,74.6,30.00,SW,231,0.0,0.0,93,0.00,,,0.00,LWC V2.00 B2112,2013-07-19 04:30:00,
2013-07-19 00:35:00,76.7,74.5,30.00,SW,231,0.0,0.0,93,0.00,,,0.00,LWC V2.00 B2112,2013-07-19 04:35:00,
2013-07-19 00:40:00,76.8,74.9,30.00,SW,231,0.0,0.0,94,0.00,,,0.00,LWC V2.00 B2112,2013-07-19 04:40:00,
2013-07-19 00:45:00,76.7,74.8,29.99,SW,231,0.0,0.0,94,0.00,,,0.00,LWC V2.00 B2112,2013-07-19 04:45:00,
2013-07-19 00:50:00,76.7,74.8,29.99,SW,231,0.0,0.0,94,0.00,,,0.00,LWC V2.00 B2112,2013-07-19 04:50:00,
2013-07-19 00:55:00,76.7,74.8,29.99,SW,231,0.0,0.0,94,0.00,,,0.00,LWC V2.00 B2112,2013-07-19 04:55:00,
2013-07-19 01:00:00,76.7,74.8,30.00,SW,231,0.0,0.0,94,0.00,,,0.00,LWC V2.00 B2112,2013-07-19 05:00:00,
2013-07-19 01:05:00,76.5,75.0,30.00,SW,231,0.0,0.0,95,0.00,,,0.00,LWC V2.00 B2112,2013-07-19 05:05:00,
2013-07-19 01:10:00,76.5,75.0,30.00,SW,231,0.0,0.0,95,0.00,,,0.00,LWC V2.00 B2112,2013-07-19 05:10:00,
2013-07-19 01:15:00,76.5,75.3,30.00,SW,231,0.0,0.0,96,0.00,,,0.00,LWC V2.00 B2112,2013-07-19 05:15:00,
2013-07-19 01:20:00,76.5,75.0,30.00,SW,231,0.0,0.0,95,0.00,,,0.00,LWC V2.00 B2112,2013-07-19 05:20:00,
2013-07-19 01:25:00,76.5,75.3,30.00,SW,231,0.0,0.0,96,0.00,,,0.00,LWC V2.00 B2112,2013-07-19 05:25:00,
2013-07-19 01:30:00,76.5,75.3,30.00,SW,231,0.0,0.0,96,0.00,,,0.00,LWC V2.00 B2112,2013-07-19 05:30:00,
2013-07-19 01:35:00,76.3,75.1,30.00,SW,231,0.0,0.0,96,0.00,,,0.00,LWC V2.00 B2112,2013-07-19 05:35:00,
2013-07-19 01:40:00,76.3,75.1,30.00,SW,231,0.0,0.0,96,0.00,,,0.00,LWC V2.00 B2112,2013-07-19 05:40:00,
2013-07-19 01:45:00,76.3,75.1,30.00,SW,231,0.0,0.0,96,0.00,,,0.00,LWC V2.00 B2112,2013-07-19 05:45:00,
2013-07-19 01:50:00,76.3,75.1,30.00,SW,231,0.0,0.0,96,0.00,,,0.00,LWC V2.00 B2112,2013-07-19 05:50:00,
2013-07-19 01:55:00,76.1,74.9,30.00,SW,231,0.0,0.0,96,0.00,,,0.00,LWC V2.00 B2112,2013-07-19 05:55:00,
2013-07-19 02:00:00,76.1,74.9,29.99,SW,231,0.0,0.0,96,0.00,,,0.00,LWC V2.00 B2112,2013-07-19 06:00:00,
2013-07-19 02:05:00,76.1,74.9,29.99,SW,231,0.0,0.0,96,0.00,,,0.00,LWC V2.00 B2112,2013-07-19 06:05:00,
2013-07-19 02:10:00,76.0,74.8,29.99,SW,231,0.0,0.0,96,0.00,,,0.00,LWC V2.00 B2112,2013-07-19 06:10:00,
2013-07-19 02:15:00,76.0,74.8,29.99,SW,231,0.0,0.0,96,0.00,,,0.00,LWC V2.00 B2112,2013-07-19 06:15:00,
2013-07-19 02:20:00,76.0,74.8,29.99,SW,231,0.0,0.0,96,0.00,,,0.00,LWC V2.00 B2112,2013-07-19 06:20:00,
2013-07-19 02:25:00,76.0,74.8,29.99,SW,231,0.0,0.0,96,0.00,,,0.00,LWC V2.00 B2112,2013-07-19 06:25:00,
2013-07-19 02:30:00,75.8,74.6,29.98,SW,231,0.0,0.0,96,0.00,,,0.00,LWC V2.00 B2112,2013-07-19 06:30:00,
2013-07-19 02:35:00,75.8,74.6,29.98,SW,231,0.0,0.0,96,0.00,,,0.00,LWC V2.00 B2112,2013-07-19 06:35:00,
2013-07-19 02:40:00,75.8,74.6,29.98,SW,231,0.0,0.0,96,0.00,,,0.00,LWC V2.00 B2112,2013-07-19 06:40:00,
2013-07-19 02:45:00,75.6,74.4,29.98,SW,231,0.0,0.0,96,0.00,,,0.00,LWC V2.00 B2112,2013-07-19 06:45:00,
2013-07-19 02:50:00,75.6,74.4,29.98,SW,231,0.0,0.0,96,0.00,,,0.00,LWC V2.00 B2112,2013-07-19 06:50:00,
2013-07-19 02:55:00,75.6,74.7,29.98,SW,228,0.0,0.0,97,0.00,,,0.00,LWC V2.00 B2112,2013-07-19 06:55:00,
2013-07-19 03:00:00,75.6,74.7,29.97,SW,228,0.0,0.0,97,0.00,,,0.00,LWC V2.00 B2112,2013-07-19 07:00:00,
2013-07-19 03:05:00,75.6,74.7,29.97,SW,228,0.0,0.0,97,0.00,,,0.00,LWC V2.00 B2112,2013-07-19 07:05:00,
2013-07-19 03:10:00,75.6,74.7,29.97,SW,228,0.0,0.0,97,0.00,,,0.00,LWC V2.00 B2112,2013-07-19 07:10:00,
2013-07-19 03:15:00,75.4,74.5,29.97,SW,228,0.0,0.0,97,0.00,,,0.00,LWC V2.00 B2112,2013-07-19 07:15:00,
2013-07-19 03:20:00,75.6,74.7,29.97,SW,228,0.0,0.0,97,0.00,,,0.00,LWC V2.00 B2112,2013-07-19 07:20:00,
2013-07-19 03:25:00,75.4,74.5,29.97,SW,228,0.0,0.0,97,0.00,,,0.00,LWC V2.00 B2112,2013-07-19 07:25:00,
2013-07-19 03:30:00,75.6,74.7,29.97,SW,228,0.0,0.0,97,0.00,,,0.00,LWC V2.00 B2112,2013-07-19 07:30:00,
2013-07-19 03:35:00,75.4,74.5,29.97,SW,228,0.0,0.0,97,0.00,,,0.00,LWC V2.00 B2112,2013-07-19 07:35:00,
2013-07-19 03:40:00,75.4,74.5,29.97,SW,228,0.0,0.0,97,0.00,,,0.00,LWC V2.00 B2112,2013-07-19 07:40:00,
2013-07-19 03:45:00,75.4,74.5,29.97,SW,228,0.0,0.0,97,0.00,,,0.00,LWC V2.00 B2112,2013-07-19 07:45:00,
2013-07-19 03:50:00,75.4,74.5,29.97,SW,228,0.0,0.0,97,0.00,,,0.00,LWC V2.00 B2112,2013-07-19 07:50:00,
2013-07-19 03:55:00,75.4,74.5,29.97,SW,228,0.0,0.0,97,0.00,,,0.00,LWC V2.00 B2112,2013-07-19 07:55:00,
2013-07-19 04:00:00,75.4,74.5,29.97,SW,228,0.0,0.0,97,0.00,,,0.00,LWC V2.00 B2112,2013-07-19 08:00:00,
2013-07-19 04:05:00,75.4,74.5,29.97,SW,228,0.0,0.0,97,0.00,,,0.00,LWC V2.00 B2112,2013-07-19 08:05:00,
2013-07-19 04:10:00,75.4,74.5,29.97,SW,228,0.0,0.0,97,0.00,,,0.00,LWC V2.00 B2112,2013-07-19 08:10:00,
2013-07-19 04:15:00,75.3,74.4,29.97,SW,228,0.0,0.0,97,0.00,,,0.00,LWC V2.00 B2112,2013-07-19 08:15:00,
2013-07-19 04:20:00,75.3,74.4,29.97,SW,228,0.0,0.0,97,0.00,,,0.00,LWC V2.00 B2112,2013-07-19 08:20:00,
2013-07-19 04:25:00,75.3,74.4,29.97,SW,228,0.0,0.0,97,0.00,,,0.00,LWC V2.00 B2112,2013-07-19 08:25:00,
2013-07-19 04:30:00,75.3,74.4,29.97,SW,228,0.0,0.0,97,0.00,,,0.00,LWC V2.00 B2112,2013-07-19 08:30:00,
2013-07-19 04:35:00,75.3,74.4,29.97,SW,228,0.0,0.0,97,0.00,,,0.00,LWC V2.00 B2112,2013-07-19 08:35:00,
2013-07-19 04:40:00,75.1,74.2,29.97,SW,228,0.0,0.0,97,0.00,,,0.00,LWC V2.00 B2112,2013-07-19 08:40:00,
2013-07-19 04:45:00,75.1,74.2,29.97,SW,228,0.0,0.0,97,0.00,,,0.00,LWC V2.00 B2112,2013-07-19 08:45:00,
2013-07-19 04:50:00,75.1,74.2,29.97,SW,228,0.0,0.0,97,0.00,,,0.00,LWC V2.00 B2112,2013-07-19 08:50:00,
2013-07-19 04:55:00,75.1,74.2,29.97,SW,228,0.0,0.0,97,0.00,,,0.00,LWC V2.00 B2112,2013-07-19 08:55:00,
2013-07-19 05:00:00,75.1,74.2,29.97,SW,228,0.0,0.0,97,0.00,,,0.00,LWC V2.00 B2112,2013-07-19 09:00:00,
2013-07-19 05:05:00,74.9,74.0,29.97,SW,228,0.0,0.0,97,0.00,,,0.00,LWC V2.00 B2112,2013-07-19 09:05:00,
2013-07-19 05:10:00,74.9,74.0,29.97,SW,228,0.0,0.0,97,0.00,,,0.00,LWC V2.00 B2112,2013-07-19 09:10:00,
2013-07-19 05:15:00,74.9,74.0,29.97,SW,228,0.0,0.0,97,0.00,,,0.00,LWC V2.00 B2112,2013-07-19 09:15:00,
2013-07-19 05:20:00,74.7,73.8,29.97,SW,228,0.0,0.0,97,0.00,,,0.00,LWC V2.00 B2112,2013-07-19 09:20:00,
2013-07-19 05:25:00,74.7,73.8,29.97,SW,228,0.0,0.0,97,0.00,,,0.00,LWC V2.00 B2112,2013-07-19 09:25:00,
2013-07-19 05:30:00,74.7,73.8,29.98,SW,228,0.0,0.0,97,0.00,,,0.00,LWC V2.00 B2112,2013-07-19 09:30:00,
2013-07-19 05:35:00,74.7,74.1,29.98,SW,228,0.0,0.0,98,0.00,,,0.00,LWC V2.00 B2112,2013-07-19 09:35:00,
2013-07-19 05:40:00,74.7,74.1,29.98,SW,228,0.0,0.0,98,0.00,,,0.00,LWC V2.00 B2112,2013-07-19 09:40:00,
2013-07-19 05:45:00,74.7,74.1,29.98,SW,228,0.0,0.0,98,0.00,,,0.00,LWC V2.00 B2112,2013-07-19 09:45:00,
2013-07-19 05:50:00,74.7,74.1,29.98,SW,228,0.0,0.0,98,0.00,,,0.00,LWC V2.00 B2112,2013-07-19 09:50:00,
2013-07-19 05:55:00,74.7,74.1,29.98,SW,228,0.0,0.0,98,0.00,,,0.00,LWC V2.00 B2112,2013-07-19 09:55:00,
2013-07-19 06:00:00,74.6,74.0,29.99,SW,228,0.0,0.0,98,0.00,,,0.00,LWC V2.00 B2112,2013-07-19 10:00:00,
2013-07-19 06:05:00,74.6,74.0,29.99,SW,228,0.0,0.0,98,0.00,,,0.00,LWC V2.00 B2112,2013-07-19 10:05:00,
2013-07-19 06:10:00,74.6,74.0,29.99,SW,228,0.0,0.0,98,0.00,,,0.00,LWC V2.00 B2112,2013-07-19 10:10:00,
2013-07-19 06:15:00,74.6,74.0,29.99,SW,228,0.0,0.0,98,0.00,,,0.00,LWC V2.00 B2112,2013-07-19 10:15:00,
2013-07-19 06:20:00,74.6,74.0,29.99,SW,228,0.0,0.0,98,0.00,,,0.00,LWC V2.00 B2112,2013-07-19 10:20:00,
2013-07-19 06:25:00,74.6,74.0,29.99,SW,228,0.0,0.0,98,0.00,,,0.00,LWC V2.00 B2112,2013-07-19 10:25:00,
2013-07-19 06:30:00,74.7,74.1,29.99,SW,228,0.0,0.0,98,0.00,,,0.00,LWC V2.00 B2112,2013-07-19 10:30:00,
2013-07-19 06:35:00,74.7,74.1,29.99,SW,228,0.0,0.0,98,0.00,,,0.00,LWC V2.00 B2112,2013-07-19 10:35:00,
2013-07-19 06:40:00,74.7,74.1,29.99,SW,228,0.0,0.0,98,0.00,,,0.00,LWC V2.00 B2112,2013-07-19 10:40:00,
2013-07-19 06:45:00,74.7,74.1,29.99,SW,228,0.0,0.0,98,0.00,,,0.00,LWC V2.00 B2112,2013-07-19 10:45:00,
2013-07-19 06:50:00,74.9,74.3,29.99,SSE,166,0.0,0.0,98,0.00,,,0.00,LWC V2.00 B2112,2013-07-19 10:50:00,
2013-07-19 06:55:00,74.9,74.3,29.99,SSE,166,0.0,0.0,98,0.00,,,0.00,LWC V2.00 B2112,2013-07-19 10:55:00,
2013-07-19 07:00:00,74.9,74.3,29.99,SSE,166,0.0,0.0,98,0.00,,,0.00,LWC V2.00 B2112,2013-07-19 11:00:00,
2013-07-19 07:05:00,74.9,74.3,29.99,SSE,166,0.0,0.0,98,0.00,,,0.00,LWC V2.00 B2112,2013-07-19 11:05:00,
2013-07-19 07:10:00,75.1,74.5,29.99,SSE,160,0.0,0.0,98,0.00,,,0.00,LWC V2.00 B2112,2013-07-19 11:10:00,
2013-07-19 07:15:00,75.1,74.5,29.99,SSE,160,0.0,0.0,98,0.00,,,0.00,LWC V2.00 B2112,2013-07-19 11:15:00,
2013-07-19 07:20:00,75.3,74.7,29.99,West,269,0.0,0.0,98,0.00,,,0.00,LWC V2.00 B2112,2013-07-19 11:20:00,
2013-07-19 07:25:00,75.3,74.7,29.99,South,174,0.0,0.0,98,0.00,,,0.00,LWC V2.00 B2112,2013-07-19 11:25:00,
2013-07-19 07:30:00,75.4,74.8,29.99,SSW,205,0.0,0.0,98,0.00,,,0.00,LWC V2.00 B2112,2013-07-19 11:30:00,
2013-07-19 07:35:00,75.4,74.8,29.99,SSE,149,0.0,0.0,98,0.00,,,0.00,LWC V2.00 B2112,2013-07-19 11:35:00,
2013-07-19 07:40:00,75.6,75.0,29.99,West,277,0.0,0.0,98,0.00,,,0.00,LWC V2.00 B2112,2013-07-19 11:40:00,
2013-07-19 07:45:00,75.8,74.9,30.00,SSE,167,0.0,0.0,97,0.00,,,0.00,LWC V2.00 B2112,2013-07-19 11:45:00,
2013-07-19 07:50:00,76.0,75.1,30.00,SE,145,0.0,0.0,97,0.00,,,0.00,LWC V2.00 B2112,2013-07-19 11:50:00,
2013-07-19 07:55:00,76.0,75.1,30.00,SSW,195,0.0,0.0,97,0.00,,,0.00,LWC V2.00 B2112,2013-07-19 11:55:00,
2013-07-19 08:00:00,76.1,75.2,30.00,SSW,205,0.0,0.0,97,0.00,,,0.00,LWC V2.00 B2112,2013-07-19 12:00:00,
2013-07-19 08:05:00,76.3,75.1,30.00,WNW,288,0.0,0.0,96,0.00,,,0.00,LWC V2.00 B2112,2013-07-19 12:05:00,
2013-07-19 08:10:00,76.5,75.3,30.00,SSW,207,0.0,0.0,96,0.00,,,0.00,LWC V2.00 B2112,2013-07-19 12:10:00,
2013-07-19 08:15:00,76.7,75.5,30.00,SSW,207,0.0,0.0,96,0.00,,,0.00,LWC V2.00 B2112,2013-07-19 12:15:00,
2013-07-19 08:20:00,77.0,75.8,30.00,SSE,159,0.0,0.0,96,0.00,,,0.00,LWC V2.00 B2112,2013-07-19 12:20:00,
2013-07-19 08:25:00,77.2,75.7,30.00,SW,234,0.0,0.0,95,0.00,,,0.00,LWC V2.00 B2112,2013-07-19 12:25:00,
2013-07-19 08:30:00,77.6,75.7,30.00,SSW,207,0.0,0.0,94,0.00,,,0.00,LWC V2.00 B2112,2013-07-19 12:30:00,
2013-07-19 08:35:00,77.9,75.7,30.00,SW,233,0.0,0.0,93,0.00,,,0.00,LWC V2.00 B2112,2013-07-19 12:35:00,
2013-07-19 08:40:00,78.1,75.9,30.00,West,272,0.0,0.0,93,0.00,,,0.00,LWC V2.00 B2112,2013-07-19 12:40:00,
2013-07-19 08:45:00,78.5,76.0,30.01,West,270,0.0,0.0,92,0.00,,,0.00,LWC V2.00 B2112,2013-07-19 12:45:00,
2013-07-19 08:50:00,78.8,75.9,30.01,SSE,165,0.0,0.0,91,0.00,,,0.00,LWC V2.00 B2112,2013-07-19 12:50:00,
2013-07-19 08:55:00,79.4,76.2,30.01,SSE,167,0.0,0.0,90,0.00,,,0.00,LWC V2.00 B2112,2013-07-19 12:55:00,
2013-07-19 09:00:00,79.8,75.9,30.01,SSW,192,0.0,0.0,88,0.00,,,0.00,LWC V2.00 B2112,2013-07-19 13:00:00,
2013-07-19 09:05:00,80.1,75.9,30.01,SE,125,0.0,0.0,87,0.00,,,0.00,LWC V2.00 B2112,2013-07-19 13:05:00,
2013-07-19 09:10:00,80.5,75.6,30.01,SW,224,0.0,0.0,85,0.00,,,0.00,LWC V2.00 B2112,2013-07-19 13:10:00,
2013-07-19 09:15:00,80.9,75.9,30.01,South,173,0.0,0.0,85,0.00,,,0.00,LWC V2.00 B2112,2013-07-19 13:15:00,
2013-07-19 09:20:00,81.1,75.8,30.01,SW,220,0.0,0.0,84,0.00,,,0.00,LWC V2.00 B2112,2013-07-19 13:20:00,
2013-07-19 09:25:00,81.6,77.0,30.01,WSW,257,0.0,0.0,86,0.00,,,0.00,LWC V2.00 B2112,2013-07-19 13:25:00,
2013-07-19 09:30:00,82.0,75.9,30.00,WNW,293,0.0,0.0,82,0.00,,,0.00,LWC V2.00 B2112,2013-07-19 13:30:00,
2013-07-19 09:35:00,82.4,76.7,30.00,West,263,0.0,0.0,83,0.00,,,0.00,LWC V2.00 B2112,2013-07-19 13:35:00,
2013-07-19 09:40:00,82.6,76.2,30.00,NW,306,0.0,0.0,81,0.00,,,0.00,LWC V2.00 B2112,2013-07-19 13:40:00,
2013-07-19 09:45:00,83.0,75.8,30.00,SSW,209,0.0,0.0,79,0.00,,,0.00,LWC V2.00 B2112,2013-07-19 13:45:00,
2013-07-19 09:50:00,83.2,76.4,30.00,West,276,0.0,0.0,80,0.00,,,0.00,LWC V2.00 B2112,2013-07-19 13:50:00,
2013-07-19 09:55:00,83.6,77.1,30.00,SSW,195,0.0,0.0,81,0.00,,,0.00,LWC V2.00 B2112,2013-07-19 13:55:00,
2013-07-19 10:00:00,83.8,76.6,30.00,WNW,288,0.0,0.0,79,0.00,,,0.00,LWC V2.00 B2112,2013-07-19 14:00:00,
2013-07-19 10:05:00,84.1,76.5,30.00,West,259,0.0,0.0,78,0.00,,,0.00,LWC V2.00 B2112,2013-07-19 14:05:00,
2013-07-19 10:10:00,84.1,76.1,30.00,SW,230,0.0,0.0,77,0.00,,,0.00,LWC V2.00 B2112,2013-07-19 14:10:00,
2013-07-19 10:15:00,84.3,77.1,30.00,West,262,0.0,0.0,79,0.00,,,0.00,LWC V2.00 B2112,2013-07-19 14:15:00,
2013-07-19 10:20:00,84.5,76.9,30.00,South,187,0.0,0.0,78,0.00,,,0.00,LWC V2.00 B2112,2013-07-19 14:20:00,
2013-07-19 10:30:00,85.3,76.8,30.00,NW,319,0.0,0.0,76,0.00,,,0.00,LWC V2.00 B2112,2013-07-19 14:30:00,
2013-07-19 10:35:00,85.5,76.6,30.00,SW,223,0.0,0.0,75,0.00,,,0.00,LWC V2.00 B2112,2013-07-19 14:35:00,
2013-07-19 10:40:00,85.1,76.3,30.00,West,278,0.0,1.0,75,0.00,,,0.00,LWC V2.00 B2112,2013-07-19 14:40:00,
2013-07-19 10:45:00,85.1,76.7,30.00,WSW,238,0.0,0.0,76,0.00,,,0.00,LWC V2.00 B2112,2013-07-19 14:45:00,
2013-07-19 10:50:00,85.3,76.0,30.00,SSE,162,0.0,0.0,74,0.00,,,0.00,LWC V2.00 B2112,2013-07-19 14:50:00,
2013-07-19 10:55:00,85.3,76.4,30.00,SE,133,0.0,0.0,75,0.00,,,0.00,LWC V2.00 B2112,2013-07-19 14:55:00,
2013-07-19 11:00:00,84.9,76.1,30.00,WSW,244,0.0,0.0,75,0.00,,,0.00,LWC V2.00 B2112,2013-07-19 15:00:00,
2013-07-19 11:05:00,84.9,76.1,30.00,SW,227,0.0,0.0,75,0.00,,,0.00,LWC V2.00 B2112,2013-07-19 15:05:00,
2013-07-19 11:10:00,85.1,76.3,30.00,WSW,253,0.0,3.0,75,0.00,,,0.00,LWC V2.00 B2112,2013-07-19 15:10:00,
2013-07-19 11:15:00,84.9,75.7,30.00,WNW,284,0.0,3.0,74,0.00,,,0.00,LWC V2.00 B2112,2013-07-19 15:15:00,
2013-07-19 11:20:00,84.7,75.9,30.00,West,279,0.0,0.0,75,0.00,,,0.00,LWC V2.00 B2112,2013-07-19 15:20:00,
2013-07-19 11:25:00,85.1,75.9,30.00,WNW,289,0.0,0.0,74,0.00,,,0.00,LWC V2.00 B2112,2013-07-19 15:25:00,
2013-07-19 11:30:00,85.7,76.0,30.00,South,186,0.0,0.0,73,0.00,,,0.00,LWC V2.00 B2112,2013-07-19 15:30:00,
2013-07-19 11:35:00,86.1,76.4,30.00,SE,136,0.0,0.0,73,0.00,,,0.00,LWC V2.00 B2112,2013-07-19 15:35:00,
2013-07-19 11:40:00,86.3,75.3,30.00,SSE,165,0.0,7.0,70,0.00,,,0.00,LWC V2.00 B2112,2013-07-19 15:40:00,
2013-07-19 11:45:00,86.1,76.0,30.00,ESE,108,0.0,2.0,72,0.00,,,0.00,LWC V2.00 B2112,2013-07-19 15:45:00,
2013-07-19 11:50:00,86.1,75.6,30.00,SSE,167,0.0,0.0,71,0.00,,,0.00,LWC V2.00 B2112,2013-07-19 15:50:00,
2013-07-19 11:55:00,86.7,76.1,30.00,South,191,0.0,0.0,71,0.00,,,0.00,LWC V2.00 B2112,2013-07-19 15:55:00,
2013-07-19 12:00:00,86.7,74.8,30.00,NW,318,0.0,5.0,68,0.00,,,0.00,LWC V2.00 B2112,2013-07-19 16:00:00,
2013-07-19 12:05:00,86.1,75.1,30.00,North,1,0.0,3.0,70,0.00,,,0.00,LWC V2.00 B2112,2013-07-19 16:05:00,
2013-07-19 12:10:00,86.1,75.1,30.00,SW,217,0.0,0.0,70,0.00,,,0.00,LWC V2.00 B2112,2013-07-19 16:10:00,
2013-07-19 12:15:00,86.1,76.8,30.00,ENE,63,0.0,0.0,74,0.00,,,0.00,LWC V2.00 B2112,2013-07-19 16:15:00,
2013-07-19 12:20:00,86.1,75.6,30.00,SE,129,0.0,0.0,71,0.00,,,0.00,LWC V2.00 B2112,2013-07-19 16:20:00,
2013-07-19 12:30:00,86.3,75.8,30.00,ESE,109,1.0,5.0,71,0.00,,,0.00,LWC V2.00 B2112,2013-07-19 16:30:00,
2013-07-19 12:35:00,86.7,75.3,30.00,SW,219,0.0,0.0,69,0.00,,,0.00,LWC V2.00 B2112,2013-07-19 16:35:00,
2013-07-19 12:40:00,86.5,74.7,30.00,West,279,2.0,8.0,68,0.00,,,0.00,LWC V2.00 B2112,2013-07-19 16:40:00,
2013-07-19 12:45:00,86.7,74.4,29.99,SSE,149,0.0,2.0,67,0.00,,,0.00,LWC V2.00 B2112,2013-07-19 16:45:00,
2013-07-19 12:50:00,87.6,74.8,29.99,South,191,3.0,3.0,66,0.00,,,0.00,LWC V2.00 B2112,2013-07-19 16:50:00,
2013-07-19 12:55:00,87.8,75.0,29.99,SE,139,0.0,0.0,66,0.00,,,0.00,LWC V2.00 B2112,2013-07-19 16:55:00,
2013-07-19 13:00:00,87.4,73.7,29.99,SSE,155,0.0,0.0,64,0.00,,,0.00,LWC V2.00 B2112,2013-07-19 17:00:00,
2013-07-19 13:05:00,87.8,75.0,29.99,SSW,195,0.0,0.0,66,0.00,,,0.00,LWC V2.00 B2112,2013-07-19 17:05:00,
2013-07-19 13:10:00,87.6,75.3,29.99,West,276,0.0,0.0,67,0.00,,,0.00,LWC V2.00 B2112,2013-07-19 17:10:00,
2013-07-19 13:15:00,88.0,74.3,29.98,WSW,257,3.0,3.0,64,0.00,,,0.00,LWC V2.00 B2112,2013-07-19 17:15:00,
2013-07-19 13:20:00,88.4,73.7,29.98,WNW,302,0.0,3.0,62,0.00,,,0.00,LWC V2.00 B2112,2013-07-19 17:20:00,
2013-07-19 13:25:00,88.4,73.7,29.98,SSE,151,0.0,0.0,62,0.00,,,0.00,LWC V2.00 B2112,2013-07-19 17:25:00,
2013-07-19 13:30:00,88.6,74.8,29.97,WSW,256,0.0,0.0,64,0.00,,,0.00,LWC V2.00 B2112,2013-07-19 17:30:00,
2013-07-19 13:35:00,88.8,75.0,29.97,SW,214,0.0,2.0,64,0.00,,,0.00,LWC V2.00 B2112,2013-07-19 17:35:00,
2013-07-19 13:40:00,88.8,74.5,29.97,NNW,330,0.0,0.0,63,0.00,,,0.00,LWC V2.00 B2112,2013-07-19 17:40:00,
2013-07-19 13:45:00,89.0,73.3,29.97,SW,221,0.0,0.0,60,0.00,,,0.00,LWC V2.00 B2112,2013-07-19 17:45:00,
2013-07-19 13:50:00,89.3,74.0,29.97,SW,224,0.0,0.0,61,0.00,,,0.00,LWC V2.00 B2112,2013-07-19 17:50:00,
2013-07-19 14:00:00,89.3,74.5,29.96,WNW,286,0.0,0.0,62,0.00,,,0.00,LWC V2.00 B2112,2013-07-19 18:00:00,
2013-07-19 14:05:00,89.7,76.3,29.96,SSE,160,0.0,0.0,65,0.00,,,0.00,LWC V2.00 B2112,2013-07-19 18:05:00,
2013-07-19 14:10:00,89.9,76.5,29.96,WSW,245,0.0,3.0,65,0.00,,,0.00,LWC V2.00 B2112,2013-07-19 18:10:00,
2013-07-19 14:15:00,89.5,75.2,29.96,SSW,193,0.0,0.0,63,0.00,,,0.00,LWC V2.00 B2112,2013-07-19 18:15:00,
2013-07-19 14:20:00,89.0,75.2,29.96,SSW,192,0.0,0.0,64,0.00,,,0.00,LWC V2.00 B2112,2013-07-19 18:20:00,
2013-07-19 14:25:00,88.8,74.5,29.96,SSW,206,0.0,0.0,63,0.00,,,0.00,LWC V2.00 B2112,2013-07-19 18:25:00,
2013-07-19 14:30:00,89.3,74.5,29.95,West,280,0.0,2.0,62,0.00,,,0.00,LWC V2.00 B2112,2013-07-19 18:30:00,
2013-07-19 14:35:00,89.5,73.7,29.95,WSW,253,0.0,2.0,60,0.00,,,0.00,LWC V2.00 B2112,2013-07-19 18:35:00,
2013-07-19 14:45:00,90.1,74.3,29.94,SW,217,0.0,0.0,60,0.00,,,0.00,LWC V2.00 B2112,2013-07-19 18:45:00,
2013-07-19 14:50:00,90.1,74.3,29.94,SSW,195,0.0,0.0,60,0.00,,,0.00,LWC V2.00 B2112,2013-07-19 18:50:00,
2013-07-19 14:55:00,89.9,73.6,29.94,SSE,165,0.0,0.0,59,0.00,,,0.00,LWC V2.00 B2112,2013-07-19 18:55:00,
2013-07-19 15:00:00,89.9,75.1,29.94,WSW,255,0.0,0.0,62,0.00,,,0.00,LWC V2.00 B2112,2013-07-19 19:00:00,
2013-07-19 15:05:00,90.3,74.5,29.94,South,188,0.0,0.0,60,0.00,,,0.00,LWC V2.00 B2112,2013-07-19 19:05:00,
2013-07-19 15:10:00,89.9,74.6,29.94,SSW,211,0.0,5.0,61,0.00,,,0.00,LWC V2.00 B2112,2013-07-19 19:10:00,
2013-07-19 15:15:00,89.9,74.6,29.94,WNW,290,0.0,0.0,61,0.00,,,0.00,LWC V2.00 B2112,2013-07-19 19:15:00,
2013-07-19 15:20:00,89.9,74.1,29.94,East,83,0.0,0.0,60,0.00,,,0.00,LWC V2.00 B2112,2013-07-19 19:20:00,
2013-07-19 15:25:00,90.1,72.2,29.94,South,175,0.0,1.0,56,0.00,,,0.00,LWC V2.00 B2112,2013-07-19 19:25:00,
2013-07-19 15:30:00,90.3,74.5,29.93,WNW,283,0.0,0.0,60,0.00,,,0.00,LWC V2.00 B2112,2013-07-19 19:30:00,
2013-07-19 15:35:00,90.3,73.5,29.93,SSW,192,0.0,0.0,58,0.00,,,0.00,LWC V2.00 B2112,2013-07-19 19:35:00,
2013-07-19 15:40:00,90.3,74.0,29.93,West,279,0.0,5.0,59,0.00,,,0.00,LWC V2.00 B2112,2013-07-19 19:40:00,
2013-07-19 15:45:00,90.3,74.5,29.93,SW,215,0.0,0.0,60,0.00,,,0.00,LWC V2.00 B2112,2013-07-19 19:45:00,
2013-07-19 15:50:00,90.3,73.0,29.93,SSW,193,4.0,4.0,57,0.00,,,0.00,LWC V2.00 B2112,2013-07-19 19:50:00,
2013-07-19 15:55:00,89.7,72.9,29.93,South,190,0.0,0.0,58,0.00,,,0.00,LWC V2.00 B2112,2013-07-19 19:55:00,
2013-07-19 16:00:00,89.5,73.2,29.92,SSW,209,0.0,4.0,59,0.00,,,0.00,LWC V2.00 B2112,2013-07-19 20:00:00,
2013-07-19 16:05:00,89.7,72.4,29.92,WSW,240,3.0,3.0,57,0.00,,,0.00,LWC V2.00 B2112,2013-07-19 20:05:00,
2013-07-19 16:10:00,89.9,74.1,29.92,ESE,119,0.0,1.0,60,0.00,,,0.00,LWC V2.00 B2112,2013-07-19 20:10:00,
2013-07-19 16:15:00,89.9,74.1,29.91,South,174,0.0,0.0,60,0.00,,,0.00,LWC V2.00 B2112,2013-07-19 20:15:00,
2013-07-19 16:20:00,90.1,74.3,29.91,SSE,158,1.0,5.0,60,0.00,,,0.00,LWC V2.00 B2112,2013-07-19 20:20:00,
2013-07-19 16:25:00,89.9,73.1,29.91,ESE,117,0.0,0.0,58,0.00,,,0.00,LWC V2.00 B2112,2013-07-19 20:25:00,
2013-07-19 16:30:00,89.7,73.4,29.91,South,184,0.0,0.0,59,0.00,,,0.00,LWC V2.00 B2112,2013-07-19 20:30:00,
2013-07-19 16:35:00,88.8,73.6,29.91,SW,224,0.0,0.0,61,0.00,,,0.00,LWC V2.00 B2112,2013-07-19 20:35:00,
2013-07-19 16:40:00,89.0,73.8,29.91,SW,214,0.0,0.0,61,0.00,,,0.00,LWC V2.00 B2112,2013-07-19 20:40:00,
2013-07-19 16:45:00,89.5,74.7,29.91,ESE,121,2.0,2.0,62,0.00,,,0.00,LWC V2.00 B2112,2013-07-19 20:45:00,
2013-07-19 16:50:00,89.7,74.4,29.91,SW,221,0.0,0.0,61,0.00,,,0.00,LWC V2.00 B2112,2013-07-19 20:50:00,
2013-07-19 16:55:00,89.7,74.4,29.91,WNW,300,0.0,2.0,61,0.00,,,0.00,LWC V2.00 B2112,2013-07-19 20:55:00,
2013-07-19 17:00:00,89.7,74.9,29.91,WNW,291,0.0,1.0,62,0.00,,,0.00,LWC V2.00 B2112,2013-07-19 21:00:00,
2013-07-19 17:05:00,89.9,73.6,29.91,SSW,203,0.0,0.0,59,0.00,,,0.00,LWC V2.00 B2112,2013-07-19 21:05:00,
2013-07-19 17:10:00,89.9,73.6,29.91,SW,233,0.0,0.0,59,0.00,,,0.00,LWC V2.00 B2112,2013-07-19 21:10:00,
2013-07-19 17:15:00,90.1,75.3,29.91,WNW,303,0.0,0.0,62,0.00,,,0.00,LWC V2.00 B2112,2013-07-19 21:15:00,
2013-07-19 17:20:00,90.1,74.3,29.91,South,177,0.0,0.0,60,0.00,,,0.00,LWC V2.00 B2112,2013-07-19 21:20:00,
2013-07-19 17:25:00,90.3,76.0,29.91,West,279,0.0,0.0,63,0.00,,,0.00,LWC V2.00 B2112,2013-07-19 21:25:00,
2013-07-19 17:30:00,90.3,74.5,29.91,SSW,207,0.0,0.0,60,0.00,,,0.00,LWC V2.00 B2112,2013-07-19 21:30:00,
2013-07-19 17:35:00,90.3,75.0,29.91,South,176,0.0,0.0,61,0.00,,,0.00,LWC V2.00 B2112,2013-07-19 21:35:00,
2013-07-19 17:40:00,90.3,75.0,29.91,SSW,213,0.0,0.0,61,0.00,,,0.00,LWC V2.00 B2112,2013-07-19 21:40:00,
2013-07-19 17:45:00,90.1,73.8,29.90,South,182,0.0,0.0,59,0.00,,,0.00,LWC V2.00 B2112,2013-07-19 21:45:00,
2013-07-19 17:50:00,89.7,74.4,29.90,SE,145,0.0,0.0,61,0.00,,,0.00,LWC V2.00 B2112,2013-07-19 21:50:00,
2013-07-19 17:55:00,89.5,74.7,29.90,SW,234,0.0,0.0,62,0.00,,,0.00,LWC V2.00 B2112,2013-07-19 21:55:00,
2013-07-19 18:00:00,89.5,75.2,29.90,South,188,0.0,0.0,63,0.00,,,0.00,LWC V2.00 B2112,2013-07-19 22:00:00,
2013-07-19 18:05:00,89.3,74.0,29.90,SSW,212,0.0,0.0,61,0.00,,,0.00,LWC V2.00 B2112,2013-07-19 22:05:00,
2013-07-19 18:10:00,89.3,73.6,29.90,NW,307,0.0,0.0,60,0.00,,,0.00,LWC V2.00 B2112,2013-07-19 22:10:00,
2013-07-19 18:15:00,89.3,75.0,29.90,SW,224,0.0,0.0,63,0.00,,,0.00,LWC V2.00 B2112,2013-07-19 22:15:00,
2013-07-19 18:20:00,89.0,73.8,29.90,SSW,212,0.0,0.0,61,0.00,,,0.00,LWC V2.00 B2112,2013-07-19 22:20:00,
2013-07-19 18:25:00,88.8,73.6,29.90,SSE,164,0.0,0.0,61,0.00,,,0.00,LWC V2.00 B2112,2013-07-19 22:25:00,
2013-07-19 18:30:00,88.6,73.9,29.90,West,281,0.0,0.0,62,0.00,,,0.00,LWC V2.00 B2112,2013-07-19 22:30:00,
2013-07-19 18:35:00,88.4,73.7,29.90,WNW,282,0.0,0.0,62,0.00,,,0.00,LWC V2.00 B2112,2013-07-19 22:35:00,
2013-07-19 18:40:00,88.4,73.2,29.90,SW,233,0.0,0.0,61,0.00,,,0.00,LWC V2.00 B2112,2013-07-19 22:40:00,
2013-07-19 18:45:00,88.0,72.8,29.90,West,270,0.0,0.0,61,0.00,,,0.00,LWC V2.00 B2112,2013-07-19 22:45:00,
2013-07-19 18:50:00,87.8,73.1,29.90,SW,236,0.0,0.0,62,0.00,,,0.00,LWC V2.00 B2112,2013-07-19 22:50:00,
2013-07-19 18:55:00,87.4,73.2,29.90,SW,231,0.0,0.0,63,0.00,,,0.00,LWC V2.00 B2112,2013-07-19 22:55:00,
2013-07-19 19:00:00,87.0,73.3,29.90,SSW,209,2.0,2.0,64,0.00,,,0.00,LWC V2.00 B2112,2013-07-19 23:00:00,
2013-07-19 19:05:00,86.5,72.4,29.90,SSW,202,0.0,0.0,63,0.00,,,0.00,LWC V2.00 B2112,2013-07-19 23:05:00,
2013-07-19 19:10:00,86.1,72.5,29.90,West,269,0.0,0.0,64,0.00,,,0.00,LWC V2.00 B2112,2013-07-19 23:10:00,
2013-07-19 19:15:00,85.7,72.5,29.90,South,191,0.0,0.0,65,0.00,,,0.00,LWC V2.00 B2112,2013-07-19 23:15:00,
2013-07-19 19:20:00,85.3,72.2,29.90,WSW,245,0.0,0.0,65,0.00,,,0.00,LWC V2.00 B2112,2013-07-19 23:20:00,
2013-07-19 19:25:00,85.1,72.0,29.90,West,264,0.0,0.0,65,0.00,,,0.00,LWC V2.00 B2112,2013-07-19 23:25:00,
2013-07-19 19:30:00,84.9,71.8,29.91,WNW,282,0.0,0.0,65,0.00,,,0.00,LWC V2.00 B2112,2013-07-19 23:30:00,
2013-07-19 19:35:00,84.7,71.6,29.91,South,186,0.0,0.0,65,0.00,,,0.00,LWC V2.00 B2112,2013-07-19 23:35:00,
2013-07-19 19:40:00,84.5,71.9,29.91,SW,221,0.0,0.0,66,0.00,,,0.00,LWC V2.00 B2112,2013-07-19 23:40:00,
2013-07-19 19:45:00,84.3,71.7,29.90,SW,222,0.0,0.0,66,0.00,,,0.00,LWC V2.00 B2112,2013-07-19 23:45:00,
2013-07-19 19:50:00,84.0,71.4,29.90,WNW,285,0.0,0.0,66,0.00,,,0.00,LWC V2.00 B2112,2013-07-19 23:50:00,
2013-07-19 19:55:00,83.8,71.2,29.90,SW,219,0.0,0.0,66,0.00,,,0.00,LWC V2.00 B2112,2013-07-19 23:55:00,
2013-07-19 20:00:00,83.6,71.0,29.90,SSE,156,0.0,0.0,66,0.00,,,0.00,LWC V2.00 B2112,2013-07-20 00:00:00,
2013-07-19 20:05:00,83.4,70.8,29.90,SE,143,0.0,0.0,66,0.00,,,0.00,LWC V2.00 B2112,2013-07-20 00:05:00,
2013-07-19 20:10:00,83.2,71.1,29.90,SE,143,0.0,0.0,67,0.00,,,0.00,LWC V2.00 B2112,2013-07-20 00:10:00,
2013-07-19 20:15:00,83.0,71.3,29.90,WNW,282,0.0,0.0,68,0.00,,,0.00,LWC V2.00 B2112,2013-07-20 00:15:00,
2013-07-19 20:25:00,82.4,71.2,29.90,North,1,0.0,0.0,69,0.00,,,0.00,LWC V2.00 B2112,2013-07-20 00:25:00,
2013-07-19 20:30:00,82.2,71.0,29.90,North,1,0.0,0.0,69,0.00,,,0.00,LWC V2.00 B2112,2013-07-20 00:30:00,
2013-07-19 20:35:00,82.0,71.2,29.90,SW,224,0.0,0.0,70,0.00,,,0.00,LWC V2.00 B2112,2013-07-20 00:35:00,
2013-07-19 20:40:00,81.8,71.0,29.90,SW,221,0.0,0.0,70,0.00,,,0.00,LWC V2.00 B2112,2013-07-20 00:40:00,
2013-07-19 20:45:00,81.6,70.8,29.90,SW,222,0.0,0.0,70,0.00,,,0.00,LWC V2.00 B2112,2013-07-20 00:45:00,
2013-07-19 20:50:00,81.2,71.3,29.90,SW,222,0.0,0.0,72,0.00,,,0.00,LWC V2.00 B2112,2013-07-20 00:50:00,
2013-07-19 20:55:00,81.1,70.8,29.90,SW,222,0.0,0.0,71,0.00,,,0.00,LWC V2.00 B2112,2013-07-20 00:55:00,
2013-07-19 21:00:00,80.7,71.2,29.90,SW,222,0.0,0.0,73,0.00,,,0.00,LWC V2.00 B2112,2013-07-20 01:00:00,
2013-07-19 21:05:00,80.3,71.2,29.90,SW,222,0.0,0.0,74,0.00,,,0.00,LWC V2.00 B2112,2013-07-20 01:05:00,
2013-07-19 21:10:00,79.9,71.2,29.90,SW,222,0.0,0.0,75,0.00,,,0.00,LWC V2.00 B2112,2013-07-20 01:10:00,
2013-07-19 21:15:00,79.6,71.7,29.90,SW,222,0.0,0.0,77,0.00,,,0.00,LWC V2.00 B2112,2013-07-20 01:15:00,
2013-07-19 21:20:00,79.4,72.7,29.90,SW,222,0.0,0.0,80,0.00,,,0.00,LWC V2.00 B2112,2013-07-20 01:20:00,
2013-07-19 21:25:00,79.0,72.7,29.90,SW,222,0.0,0.0,81,0.00,,,0.00,LWC V2.00 B2112,2013-07-20 01:25:00,
2013-07-19 21:30:00,78.6,71.9,29.91,SW,222,0.0,0.0,80,0.00,,,0.00,LWC V2.00 B2112,2013-07-20 01:30:00,
2013-07-19 21:35:00,78.6,71.9,29.91,SW,219,0.0,0.0,80,0.00,,,0.00,LWC V2.00 B2112,2013-07-20 01:35:00,
2013-07-19 21:40:00,78.5,71.4,29.91,SW,219,0.0,0.0,79,0.00,,,0.00,LWC V2.00 B2112,2013-07-20 01:40:00,
2013-07-19 21:45:00,78.5,71.4,29.92,SW,219,0.0,0.0,79,0.00,,,0.00,LWC V2.00 B2112,2013-07-20 01:45:00,
2013-07-19 21:50:00,78.5,71.4,29.92,SW,219,0.0,0.0,79,0.00,,,0.00,LWC V2.00 B2112,2013-07-20 01:50:00,
2013-07-19 21:55:00,78.5,71.4,29.92,SW,219,0.0,0.0,79,0.00,,,0.00,LWC V2.00 B2112,2013-07-20 01:55:00,
2013-07-19 22:00:00,78.5,71.4,29.92,SW,219,0.0,0.0,79,0.00,,,0.00,LWC V2.00 B2112,2013-07-20 02:00:00,
2013-07-19 22:05:00,78.3,71.2,29.92,SW,231,0.0,0.0,79,0.00,,,0.00,LWC V2.00 B2112,2013-07-20 02:05:00,
2013-07-19 22:10:00,78.5,71.1,29.92,SW,231,0.0,0.0,78,0.00,,,0.00,LWC V2.00 B2112,2013-07-20 02:10:00,
2013-07-19 22:15:00,78.5,70.7,29.93,SSE,159,0.0,0.0,77,0.00,,,0.00,LWC V2.00 B2112,2013-07-20 02:15:00,
2013-07-19 22:20:00,78.6,71.1,29.93,SSE,159,0.0,0.0,78,0.00,,,0.00,LWC V2.00 B2112,2013-07-20 02:20:00,
2013-07-19 22:25:00,78.6,71.5,29.93,SSE,159,0.0,0.0,79,0.00,,,0.00,LWC V2.00 B2112,2013-07-20 02:25:00,
2013-07-19 22:30:00,78.5,70.7,29.93,SSW,197,0.0,0.0,77,0.00,,,0.00,LWC V2.00 B2112,2013-07-20 02:30:00,
2013-07-19 22:35:00,78.6,70.4,29.93,ESE,122,0.0,0.0,76,0.00,,,0.00,LWC V2.00 B2112,2013-07-20 02:35:00,
2013-07-19 22:40:00,78.8,70.6,29.93,SE,136,0.0,0.0,76,0.00,,,0.00,LWC V2.00 B2112,2013-07-20 02:40:00,
2013-07-19 22:45:00,79.0,70.8,29.93,ESE,115,0.0,0.0,76,0.00,,,0.00,LWC V2.00 B2112,2013-07-20 02:45:00,
2013-07-19 22:50:00,79.2,71.3,29.93,SW,226,0.0,0.0,77,0.00,,,0.00,LWC V2.00 B2112,2013-07-20 02:50:00,
2013-07-19 22:55:00,79.2,71.3,29.93,SW,229,0.0,0.0,77,0.00,,,0.00,LWC V2.00 B2112,2013-07-20 02:55:00,
2013-07-19 23:00:00,79.2,71.7,29.94,SSW,206,0.0,0.0,78,0.00,,,0.00,LWC V2.00 B2112,2013-07-20 03:00:00,
2013-07-19 23:05:00,79.2,71.7,29.94,SW,224,0.0,0.0,78,0.00,,,0.00,LWC V2.00 B2112,2013-07-20 03:05:00,
2013-07-19 23:15:00,78.8,71.7,29.94,West,260,0.0,0.0,79,0.00,,,0.00,LWC V2.00 B2112,2013-07-20 03:15:00,
2013-07-19 23:20:00,78.8,71.7,29.94,SSE,150,0.0,0.0,79,0.00,,,0.00,LWC V2.00 B2112,2013-07-20 03:20:00,
2013-07-19 23:25:00,78.8,72.1,29.94,SE,135,0.0,0.0,80,0.00,,,0.00,LWC V2.00 B2112,2013-07-20 03:25:00,
2013-07-19 23:30:00,78.6,71.9,29.94,SSW,193,0.0,3.0,80,0.00,,,0.00,LWC V2.00 B2112,2013-07-20 03:30:00,
2013-07-19 23:35:00,78.6,71.9,29.94,SSW,202,0.0,0.0,80,0.00,,,0.00,LWC V2.00 B2112,2013-07-20 03:35:00,
2013-07-19 23:40:00,78.6,72.3,29.94,SSW,201,0.0,0.0,81,0.00,,,0.00,LWC V2.00 B2112,2013-07-20 03:40:00,
2013-07-19 23:45:00,78.5,72.2,29.93,SSW,195,0.0,0.0,81,0.00,,,0.00,LWC V2.00 B2112,2013-07-20 03:45:00,
2013-07-19 23:50:00,78.5,72.2,29.93,SW,223,0.0,0.0,81,0.00,,,0.00,LWC V2.00 B2112,2013-07-20 03:50:00,
2013-07-19 23:55:00,78.5,72.5,29.93,SSE,158,0.0,0.0,82,0.00,,,0.00,LWC V2.00 B2112,2013-07-20 03:55:00,